Location: ?????
(54.9266°N, 38.5527°E)
Time: 04:05:08
(UTC+00:00)

Cosmos 1626 - Pass Details

Date: 14 April 2024
Orbit: 409 x 413 km, 82.5° (Epoch: 20 May)

Event Time Altitude Azimuth Distance (km) Brightness Sun altitude
Rises 01:34:40 0° 185° (S) 2,373 5.2 -7.4°
Reaches altitude 10° 01:36:41 10° 184° (S) 1,518 4.3 -7.2°
Maximum altitude 01:39:58 73° 100° (E) 456 2.1 -6.7°
Drops below altitude 10° 01:43:19 10° 15° (NNE) 1,545 5.3 -6.3°
Sets 01:45:24 0° 14° (NNE) 2,422 6.2 -6.0°
